sat.trackr.live / text

‹ back to catalog

STARLINK-11648 [DTC]

NORAD 63313 · 2025-057G

PAYLOAD ACTIVE UNKNOWN

§ Identity

Operator
Country
US
Launch date
2025-03-18
Launch site
AFETR
Launch vehicle
Mass (kg)
RCS (m²)

Purposes: comms

External: N2YO · Heavens-Above · Gunter

§ Orbital elements

Epoch: 2026-05-25T02:31:38.097120Z

Period
91.67 min
Inclination
43.0055°
Eccentricity
0.0001872
Mean motion
15.70875108 rev/d
Perigee alt
355.1 km
Apogee alt
357.7 km
Semi-major
6,734.5 km
B*
1.1856e-3
RAAN
164.1142°
Arg perigee
226.7247°
Mean anomaly
133.3465°
Rev number
6,919

§ Raw data

STARLINK-11648 [DTC]1 63313U 25057G   26145.10530205  .00154771  00000+0  11856-2 0  99962 63313  43.0055 164.1142 0001872 226.7247 133.3465 15.70875108 69194

JSON: /api/v1/satellites/63313 · /tle

For live sub-satellite position, see the globe view (requires WebGL).

§ Visibility from observer

Set your observer location to see the next 7 days of passes ≥ 10°. The values pass through the URL so the page stays shareable.

No JS? Fill the form by hand. The geolocation button needs JavaScript.